This is the latest recevied weather packets stored in our database for station/object KD8ZLZ-13. If no packets are shown the sender has not sent any weather packets the latest 10 day(s).
| Time | Temp. | Humidity | Pressure | Rain* | Wind** | Luminosity | Snow |
|---|---|---|---|---|---|---|---|
| 1777519065 | 7.22° C | 80% | 1011.9 hPa | 0 mm | - | 20 W/m² | - |
| 1777518465 | 7.22° C | 80% | 1011.9 hPa | 0 mm | - | 20 W/m² | - |
| 1777517865 | 7.22° C | 80% | 1011.9 hPa | 0 mm | - | 20 W/m² | - |
| 1777517265 | 6.67° C | 80% | 1011.9 hPa | 0 mm | - | 20 W/m² | - |
| 1777516665 | 7.22° C | 80% | 1011.9 hPa | 0 mm | - | 20 W/m² | - |
| 1777516065 | 7.78° C | 80% | 1011.9 hPa | 0 mm | - | 20 W/m² | - |
| 1777515465 | 7.78° C | 80% | 1011.9 hPa | 0 mm | - | 20 W/m² | - |
| 1777514865 | 7.78° C | 80% | 1011.9 hPa | 0 mm | - | 20 W/m² | - |
| 1777513665 | 8.33° C | 80% | 1011.9 hPa | 0 mm | - | 20 W/m² | - |
| 1777513065 | 8.33° C | 80% | 1011.9 hPa | 0 mm | - | 20 W/m² | - |
| 1777511865 | 8.33° C | 80% | 1011.9 hPa | 0 mm | - | 20 W/m² | - |
| 1777508865 | 8.89° C | 80% | 1011.9 hPa | 0 mm | - | 20 W/m² | - |
| 1777508265 | 8.89° C | 80% | 1011.9 hPa | 0 mm | - | 20 W/m² | - |
| 1777505265 | 10° C | 80% | 1011.9 hPa | 0 mm | - | 20 W/m² | - |
| 1777502865 | 10.56° C | 79% | 1011.9 hPa | 0 mm | - | 36 W/m² | - |
| 1777502265 | 10.56° C | 76% | 1011.9 hPa | 0 mm | - | 59 W/m² | - |
| 1777501665 | 10.56° C | 77% | 1011.9 hPa | 0 mm | - | 37 W/m² | - |
| 1777501065 | 10.56° C | 75% | 1011.9 hPa | 0 mm | - | 44 W/m² | - |
| 1777500465 | 10.56° C | 76% | 1011.9 hPa | 0 mm | - | 93 W/m² | - |
| 1777499865 | 10.56° C | 76% | 1011.9 hPa | 0 mm | - | 75 W/m² | - |
| 1777499265 | 10.56° C | 76% | 1011.5 hPa | 0 mm | - | 85 W/m² | - |
| 1777498665 | 10.56° C | 80% | 1011.9 hPa | 0 mm | - | 118 W/m² | - |
| 1777495065 | 10° C | 82% | 1011.9 hPa | 0 mm | - | 88 W/m² | - |
| 1777494465 | 10° C | 82% | 1011.9 hPa | 0 mm | - | 88 W/m² | - |
| 1777493865 | 10.56° C | 81% | 1011.9 hPa | 0 mm | - | 67 W/m² | - |
* Rain latest hour (hover to see other rain measurements)
** Current wind speed in m/s (hover to see current wind gust speed)